Keps
Threads by month
- ----- 2023 -----
- December
- November
- October
- September
- August
- July
- June
- May
- April
- March
- February
- January
- ----- 2022 -----
- December
- November
- October
- September
- August
- July
- June
- May
- April
- March
- February
- January
- ----- 2021 -----
- December
- November
- October
- September
- August
- July
- June
- May
- April
- March
- February
- January
- ----- 2020 -----
- December
- November
- October
- September
- August
- July
- June
- May
- April
- March
- February
- January
- ----- 2019 -----
- December
- November
- October
- September
- August
- July
- June
- May
- April
- March
- February
- January
- ----- 2018 -----
- December
- November
- October
- September
- August
- July
- June
- May
- April
- March
- February
- January
- ----- 2017 -----
- December
- November
- October
- September
- August
- July
- June
- May
- April
- March
- February
- January
- ----- 2016 -----
- December
- November
- October
- September
- August
- July
- June
- May
- April
- March
- February
- January
- ----- 2015 -----
- December
- November
- October
- September
- August
- July
- June
- May
- April
- March
- February
- January
- ----- 2014 -----
- December
- November
- October
- September
- August
- July
- June
- May
- April
- March
- February
- January
- ----- 2013 -----
- December
- November
- October
- September
- August
- July
- June
- May
- April
- March
- February
- January
- ----- 2012 -----
- December
- November
- October
- September
- August
- July
- June
- May
- April
- March
- February
- January
- ----- 2011 -----
- December
- November
- October
- September
- August
- July
- June
- May
- April
- March
- February
- January
- ----- 2010 -----
- December
- November
- October
- September
- August
- July
- June
- May
- April
- March
- February
- January
- ----- 2009 -----
- December
- November
- October
- September
- August
- July
- June
- May
- April
- March
- February
- January
- ----- 2008 -----
- December
- November
- October
- September
- August
- July
- June
- May
- April
- March
- February
- January
- ----- 2007 -----
- December
- November
- October
- September
- August
- July
- June
- May
- April
- March
- February
- January
- ----- 2006 -----
- December
- November
- October
- September
January 2018
- 1 participants
- 13 discussions
Tonight (1-11-2018) at 10:58 p.m. EST (9:58 p.m. CST) the PSLV-C40 flight
from India will place AMSAT Fox-1D in orbit.
Additional information, per AMSAT News Service Bulletin #007, can be
followed for launch updates at:
https://spaceflight101.com/events/pslv-c40-cartosat-2er/
http://tinyurl.com/ANS-007-SpaceFlight-PSLVC40
http://tinyurl.com/ANS-007-SpaceDaily-PSLV
The pre-launch lastest TLEs for Fox-1D are included in this weeks AMSAT-NA
TLE distribution with the satellite name and NORAD CAT ID of "99934". The
last TLE in the list. I have verified this TLE distribution with my tracking
program (SatPC32) and the TLEs load with issue.
Comment: Since several objects are to be placed in orbit, we will face the
same identification issues as occurred with AO-91. I plan to hold both the
satellite name and the NORAD CAT ID for Fox-1D as "99934" until we settle on
which object is Fox-1D. Hopefully this will minimize overall confusion.
1
1
SB KEPS @ AMSAT $ORB18011.N
2Line Orbital Elements 18011.AMSAT
HR AMSAT ORBITAL ELEMENTS FOR AMATEUR SATELLITES IN NASA FORMAT
FROM WA5QGD FORT WORTH,TX January 11, 2018
BID: ORB18011.N
DECODE 2-LINE ELSETS WITH THE FOLLOWING KEY:
1 AAAAAU 00 0 0 BBBBB.BBBBBBBB .CCCCCCCC 00000-0 00000-0 0 DDDZ
2 AAAAA EEE.EEEE FFF.FFFF GGGGGGG HHH.HHHH III.IIII JJ.JJJJJJJJKKKKKZ
KEY: A-CATALOGNUM B-EPOCHTIME C-DECAY D-ELSETNUM E-INCLINATION F-RAAN
G-ECCENTRICITY H-ARGPERIGEE I-MNANOM J-MNMOTION K-ORBITNUM Z-CHECKSUM
TO ALL RADIO AMATEURS BT
AO-07
1 07530U 74089B 18010.88214153 -.00000028 00000-0 10133-3 0 9997
2 07530 101.6640 340.7110 0011840 280.7165 133.9025 12.53630636974888
UO-11
1 14781U 84021B 18011.19370882 .00000046 00000-0 11831-4 0 9993
2 14781 97.6710 53.9231 0007336 231.7725 128.2830 14.82972478821177
LO-19
1 20442U 90005G 18010.88792422 .00000005 00000-0 17826-4 0 9991
2 20442 098.5962 310.4733 0010659 253.4670 106.5343 14.32883868461309
HUBBLE
1 20580U 90037B 18011.57447253 .00000488 00000-0 19000-4 0 9996
2 20580 28.4705 70.3425 0002426 254.5855 223.9248 15.08960833321797
MET-2/21
1 22782U 93055A 18011.12791330 .00000029 00000-0 12370-4 0 9998
2 22782 82.5473 218.5614 0021740 205.0138 274.9177 13.83805806230455
AO-27
1 22825U 93061C 18011.77126548 .00000001 00000-0 18078-4 0 9998
2 22825 98.8423 345.2284 0009478 83.5095 276.7166 14.30018942267216
IO-26
1 22826U 93061D 18010.91487082 .00000010 00000-0 21423-4 0 9995
2 22826 098.8363 344.4160 0009989 076.6916 283.5379 14.30349521267027
FO-29
1 24278U 96046B 18011.17135911 -.00000054 00000-0 -20870-4 0 9999
2 24278 98.5314 231.4282 0350765 158.0984 203.5577 13.53080417 57001
NOAA-15
1 25338U 98030A 18010.93254585 .00000024 00000-0 28943-4 0 9998
2 25338 098.7769 027.1992 0009990 328.7092 031.3492 14.25834574022354
GO-32
1 25397U 98043D 18011.02116152 -.00000014 00000-0 13008-4 0 9991
2 25397 98.6342 314.1984 0002315 103.0755 257.0682 14.23637724 13364
ISS
1 25544U 98067A 18010.68703565 .00005051 00000-0 83015-4 0 9992
2 25544 051.6423 083.8911 0003400 359.0210 136.7765 15.54290053094024
NO-44
1 26931U 01043C 18011.18256746 -.00000049 00000-0 12836-4 0 9997
2 26931 67.0515 274.5271 0005245 276.1090 83.9414 14.30490251850096
SO-50
1 27607U 02058C 18011.02978185 -.00000010 00000-0 19197-4 0 9991
2 27607 64.5536 210.3875 0046079 7.9586 352.2237 14.75410816809772
CO-55
1 27844U 03031E 18011.69287541 .00000064 00000-0 48409-4 0 9994
2 27844 98.6886 22.6481 0010804 103.3304 256.9079 14.22087983753953
CO-57
1 27848U 03031J 18011.60882576 .00000043 00000-0 39390-4 0 9994
2 27848 98.6975 22.9081 0010662 112.5554 247.6753 14.21695544753814
RS-22
1 27939U 03042A 18011.75012626 .00000113 00000-0 28754-4 0 9994
2 27939 97.9658 155.1603 0011672 286.0091 181.0948 14.66648241763885
NOAA-18
1 28654U 05018A 18010.90783964 -.00000019 00000-0 14757-4 0 9994
2 28654 099.1646 043.0097 0014045 205.8713 154.1757 14.12363302651484
CO-58
1 28895U 05043F 18010.89037386 .00000141 00000-0 35946-4 0 9995
2 28895 097.8856 168.9308 0016389 202.5924 157.4559 14.63496500650637
Falconsat-3
1 30776U 07006E 18010.85169702 .00002017 00000-0 61940-4 0 9998
2 30776 035.4346 187.7683 0002789 028.7100 331.3779 15.33731557600148
CO-65
1 32785U 08021C 18010.83590220 .00000205 00000-0 27926-4 0 9992
2 32785 097.5541 030.4786 0012707 193.8971 166.1898 14.88043484525770
AAUSAT2
1 32788U 08021F 18011.72729010 .00000183 00000-0 22137-4 0 9999
2 32788 97.5382 44.6293 0012719 147.1456 213.0558 14.94185081526817
DO-64
1 32789U 08021G 18011.75842722 .00001380 00000-0 99546-4 0 9997
2 32789 97.5347 70.3920 0014087 110.5463 249.7277 15.05669247528241
CO-66
1 32791U 08021J 18011.58223112 .00000256 00000-0 31668-4 0 9999
2 32791 97.5472 36.1646 0013588 173.6471 186.4922 14.90442131526181
RS-30
1 32953U 08025A 18011.73851969 .00000005 00000-0 -36939-4 0 9996
2 32953 82.5041 109.9835 0019514 188.1807 171.8957 12.43080891437336
PRISM
1 33493U 09002B 18011.73561349 .00001171 00000-0 10974-3 0 9996
2 33493 98.1458 267.6940 0016545 109.8952 250.4050 14.96041744486956
NOAA-19
1 33591U 09005A 18010.92998562 .00000117 00000-0 88690-4 0 9999
2 33591 099.1222 346.0058 0014799 050.8642 309.3841 14.12244916459717
TISAT-1
1 36799U 10035E 18010.91643055 .00000419 00000-0 48774-4 0 9994
2 36799 098.0841 143.2106 0012413 011.1187 349.0302 14.90664152406529
JUGNU
1 37839U 11058B 18011.12150477 .00000298 00000-0 16891-4 0 9991
2 37839 19.9609 269.6620 0018865 315.3543 196.1881 14.12606019323135
SRMSAT
1 37841U 11058D 18010.20432550 .00000298 00000-0 18312-4 0 9997
2 37841 19.9731 321.1679 0011883 194.4399 297.4235 14.10595821322548
AO-71
1 37854U 11061E 18010.87561580 .00000625 00000-0 40986-4 0 9990
2 37854 101.7095 355.2632 0164915 179.7933 180.3375 15.05001532338163
HRBE
1 37855U 11061F 18010.89523807 .00001211 00000-0 70197-4 0 9992
2 37855 101.7214 352.9547 0177909 187.5542 172.2983 15.03972035337534
ALMASAT-1
1 38078U 12006B 18011.17871234 .00031908 39657-5 30584-3 0 9998
2 38078 69.4351 288.5317 0270244 341.6932 166.8931 15.32907204316532
HORYU-2
1 38340U 12025D 18011.62911731 .00000214 00000-0 39597-4 0 9993
2 38340 98.3749 27.9035 0011415 355.3826 4.7275 14.75481956304024
RS-40
1 38735U 12041C 18011.18608911 .00000023 00000-0 98891-4 0 9993
2 38735 82.4741 194.4981 0016308 296.5996 63.3412 12.42576175247523
BEESAT-3
1 39134U 13015E 18011.43556489 .00001001 00000-0 57312-4 0 9999
2 39134 64.8635 273.7968 0029422 230.8335 129.0178 15.18706163261093
BEESAT-2
1 39136U 13015G 18010.92225594 .00000614 00000-0 41976-4 0 9992
2 39136 064.8702 289.1750 0031194 253.5301 106.2396 15.15793466260361
ZACUBE-1
1 39417U 13066B 18011.15129671 .00000208 00000-0 32830-4 0 9993
2 39417 97.6057 48.0268 0058000 310.3541 49.2615 14.80857406223555
TRITON-1
1 39427U 13066M 18010.94509732 .00000223 00000-0 43505-4 0 9998
2 39427 097.6365 017.3551 0115165 043.7160 317.3095 14.67595170221328
GOMX-1
1 39430U 13066Q 18011.73772456 .00000242 00000-0 52387-4 0 9994
2 39430 97.6807 0.0458 0153025 104.3189 257.5057 14.59003418220344
LO-74
1 39440U 13066AA 18011.09528329 .00000224 00000-0 38425-4 0 9999
2 39440 97.6115 35.5896 0080189 346.6785 13.2307 14.75595113222757
AO-73
1 39444U 13066AE 18011.16121158 .00000247 00000-0 37183-4 0 9995
2 39444 97.6071 49.3602 0057114 306.2027 53.3913 14.81619473222406
SPROUT
1 39770U 14029E 18011.64421219 .00000508 00000-0 63444-4 0 9990
2 39770 97.8753 114.0766 0009180 12.6584 347.4868 14.86624426197107
DUCHIFAT-1
1 40021U 14033M 18011.74606861 .00000329 00000-0 39833-4 0 9991
2 40021 97.9176 290.1838 0012622 340.5055 19.5678 14.90166289193650
NANOSATCBR1
1 40024U 14033Q 18011.71079370 .00000398 00000-0 47783-4 0 9999
2 40024 97.9122 288.6875 0011954 342.6475 17.4331 14.89450273193585
